Simultaneous Nadir Overpasses (SNOs) Predictions

Prediction of SNOs between GOES-14 and AQUA Satellite Orbit:

Table of predicted SNOs for the next 14.0 days since TLE Epoch: 4/24/2021
Index Date Time (GOES-14) GOES-14 Lat,Lon AQUA Lat,Lon Distance(km) Time Diff (sec)
1 04/24/2021 08:45:06 0.15,-104.24 0.84,-107.62 383.99 80
2 04/26/2021 08:32:54 0.15,-104.24 0.23,-104.66 47.51 80
3 04/28/2021 08:23:22 0.15,-104.24 -0.39,-101.70 288.62 80
4 04/28/2021 20:44:47 -0.14,-104.32 -0.68,-106.90 293.17 80
5 04/30/2021 20:29:55 -0.15,-104.31 -0.06,-103.94 42.26 80
6 05/02/2021 20:17:43 -0.15,-104.30 0.57,-100.98 377.94 80
7 05/03/2021 08:38:58 0.14,-104.21 0.52,-106.14 218.72 80
8 05/05/2021 08:29:25 0.15,-104.21 -0.05,-103.17 117.84 80
9 05/05/2021 20:50:50 -0.14,-104.32 -1.01,-108.37 460.61 80
10 05/07/2021 08:17:13 0.15,-104.21 -0.69,-100.21 454.92 80
11 05/07/2021 20:38:38 -0.14,-104.32 -0.37,-105.41 123.82 80
